Station Historical Data
Daily Summary for June 9, 2011 Units:  Metric    English   Both
« Previous Day
Next Day »
Daily Weekly Monthly Yearly Custom
  High: Low: Average:
Temperature: 32.6 °C 20.2 °C 26.6 °C
Dew Point: 21.9 °C 18.3 °C 20 °C
Humidity: 95% 44% 69%
Wind Speed: 16.1km/h 0km/h 3.2km/h
Wind Gust: 16.1km/h - -
Wind- - SSW
Pressure: 1015.8 hPa 1012.1 hPa -
Precipitation: 0 mm    
Historical Graphs
 
 
Tabular Data for June 9, 2011
Time Temperature Dew Point Pressure Wind Wind Speed Wind Gust Humidity Rainfall Rate (Hourly) Conditions
00:00 24.4 °C 21.1 °C 1013.8 hPa Calm     82% 0 mm
00:01 24.4 °C 21.3 °C 1013.8 hPa Calm     83% 0 mm
00:05 24.3 °C 21.1 °C 1013.8 hPa Calm     82% 0 mm
00:07 24.3 °C 21 °C 1013.8 hPa Calm     82% 0 mm
00:12 24.1 °C 21 °C 1013.8 hPa Calm     83% 0 mm
00:17 23.9 °C 21 °C 1013.8 hPa Calm     84% 0 mm
00:22 23.7 °C 21.1 °C 1013.8 hPa Calm     85% 0 mm
00:27 23.6 °C 21.1 °C 1013.8 hPa SSE 4.8 km/h 9.7 km/h 86% 0 mm
00:32 23.4 °C 20.9 °C 1013.8 hPa South 3.2 km/h 4.8 km/h 86% 0 mm
00:33 23.5 °C 21 °C 1013.8 hPa SE 3.2 km/h 3.2 km/h 86% 0 mm
00:38 23.7 °C 20.9 °C 1013.8 hPa SSE 3.2 km/h 3.2 km/h 84% 0 mm
00:39 23.8 °C 20.9 °C 1013.8 hPa SSE 3.2 km/h 3.2 km/h 84% 0 mm
00:43 23.9 °C 20.9 °C 1013.8 hPa SSE 3.2 km/h 4.8 km/h 83% 0 mm
00:44 24 °C 20.9 °C 1013.8 hPa SSE 3.2 km/h 3.2 km/h 83% 0 mm
00:48 24.1 °C 21.1 °C 1013.8 hPa SE 3.2 km/h 4.8 km/h 83% 0 mm
00:53 24.3 °C 21.1 °C 1013.8 hPa South 3.2 km/h 8 km/h 82% 0 mm
00:58 24.6 °C 20.9 °C 1013.8 hPa SSE 3.2 km/h 6.4 km/h 80% 0 mm
01:03 24.7 °C 21 °C 1013.8 hPa SSW 4.8 km/h 6.4 km/h 80% 0 mm
01:08 24.7 °C 21.1 °C 1013.8 hPa South 3.2 km/h 9.7 km/h 80% 0 mm
01:13 24.7 °C 21 °C 1013.8 hPa SSW 3.2 km/h 4.8 km/h 80% 0 mm
01:18 24.6 °C 20.9 °C 1013.8 hPa South 3.2 km/h 4.8 km/h 80% 0 mm
01:19 24.6 °C 20.9 °C 1013.8 hPa SE 3.2 km/h 4.8 km/h 80% 0 mm
01:23 24.5 °C 20.8 °C 1013.8 hPa SW 3.2 km/h 4.8 km/h 80% 0 mm
01:24 24.4 °C 20.8 °C 1013.8 hPa SW 6.4 km/h 6.4 km/h 80% 0 mm
01:29 24.3 °C 20.8 °C 1013.8 hPa SW 6.4 km/h 6.4 km/h 81% 0 mm
01:30 24.2 °C 20.9 °C 1013.8 hPa SW 4.8 km/h 6.4 km/h 82% 0 mm
01:31 24.2 °C 20.9 °C 1013.8 hPa SW 3.2 km/h 6.4 km/h 82% 0 mm
01:34 24.1 °C 20.8 °C 1013.8 hPa SW 3.2 km/h 6.4 km/h 82% 0 mm
01:35 24.1 °C 20.8 °C 1013.8 hPa WSW 3.2 km/h 4.8 km/h 82% 0 mm
01:38 24 °C 20.7 °C 1013.8 hPa SW 3.2 km/h 6.4 km/h 82% 0 mm
01:40 23.9 °C 20.9 °C 1013.8 hPa SSW 3.2 km/h 6.4 km/h 83% 0 mm
01:45 23.8 °C 20.8 °C 1013.8 hPa SW 3.2 km/h 4.8 km/h 83% 0 mm
01:47 23.8 °C 20.8 °C 1013.8 hPa SW 4.8 km/h 4.8 km/h 83% 0 mm
01:50 23.8 °C 20.8 °C 1013.8 hPa SSW 3.2 km/h 6.4 km/h 83% 0 mm
01:55 23.8 °C 20.8 °C 1013.8 hPa South 3.2 km/h 6.4 km/h 83% 0 mm
02:00 23.9 °C 20.6 °C 1013.8 hPa SW 4.8 km/h 4.8 km/h 82% 0 mm
02:01 23.9 °C 20.6 °C 1013.8 hPa SW 3.2 km/h 4.8 km/h 82% 0 mm
02:06 23.8 °C 20.8 °C 1013.8 hPa SW 4.8 km/h 4.8 km/h 83% 0 mm
02:11 23.8 °C 20.7 °C 1013.8 hPa SW 4.8 km/h 4.8 km/h 83% 0 mm
02:16 23.7 °C 20.6 °C 1013.8 hPa SW 3.2 km/h 3.2 km/h 83% 0 mm
02:21 23.4 °C 20.6 °C 1013.8 hPa SSW 3.2 km/h 3.2 km/h 84% 0 mm
02:26 23.4 °C 20.6 °C 1013.8 hPa SW 3.2 km/h 3.2 km/h 84% 0 mm
02:27 23.3 °C 20.5 °C 1013.8 hPa SSW 1.6 km/h 3.2 km/h 84% 0 mm
02:28 23.3 °C 20.5 °C 1013.8 hPa SW 1.6 km/h 3.2 km/h 84% 0 mm
02:33 23.3 °C 20.6 °C 1013.8 hPa SSW 1.6 km/h 1.6 km/h 85% 0 mm
02:34 23.3 °C 20.6 °C 1013.8 hPa SSW 1.6 km/h 1.6 km/h 85% 0 mm
02:39 23.2 °C 20.5 °C 1013.4 hPa SW 1.6 km/h 1.6 km/h 85% 0 mm
02:40 23.2 °C 20.5 °C 1013.8 hPa Calm   1.6 km/h 85% 0 mm
02:44 23.1 °C 20.4 °C 1013.8 hPa SW 1.6 km/h 3.2 km/h 85% 0 mm
02:45 23.1 °C 20.4 °C 1013.8 hPa SSW 3.2 km/h 3.2 km/h 85% 0 mm
02:50 23.1 °C 20.6 °C 1013.8 hPa Calm   1.6 km/h 86% 0 mm
02:51 23.1 °C 20.6 °C 1013.8 hPa Calm   1.6 km/h 86% 0 mm
02:56 22.9 °C 20.5 °C 1013.8 hPa SSE 1.6 km/h 1.6 km/h 86% 0 mm
03:01 22.9 °C 20.4 °C 1013.8 hPa Calm   1.6 km/h 86% 0 mm
03:06 22.8 °C 20.3 °C 1013.4 hPa Calm     86% 0 mm
03:11 22.7 °C 20.2 °C 1013.4 hPa Calm     86% 0 mm
03:16 22.6 °C 20.1 °C 1013.4 hPa Calm     86% 0 mm
03:21 22.4 °C 20.1 °C 1013.4 hPa Calm     87% 0 mm
03:22 22.3 °C 20.1 °C 1013.4 hPa Calm     87% 0 mm
03:26 22.3 °C 20 °C 1013.4 hPa Calm     87% 0 mm
03:27 22.3 °C 20 °C 1013.4 hPa Calm     87% 0 mm
03:30 22.2 °C 19.9 °C 1013.8 hPa Calm     87% 0 mm
03:32 22.1 °C 20.1 °C 1013.8 hPa Calm     88% 0 mm
03:35 22.1 °C 20.1 °C 1013.8 hPa Calm     88% 0 mm
03:38 22.1 °C 20.1 °C 1013.8 hPa Calm     88% 0 mm
03:40 22.1 °C 20.1 °C 1013.8 hPa Calm     88% 0 mm
03:43 22.1 °C 20.1 °C 1013.8 hPa Calm   1.6 km/h 88% 0 mm
03:45 22.2 °C 20.1 °C 1013.8 hPa Calm   1.6 km/h 88% 0 mm
03:50 22.2 °C 19.9 °C 1013.8 hPa Calm     87% 0 mm
03:55 22 °C 20.1 °C 1013.8 hPa Calm     89% 0 mm
04:00 21.8 °C 20.1 °C 1013.8 hPa Calm     90% 0 mm
04:05 21.7 °C 20.2 °C 1013.8 hPa Calm     91% 0 mm
04:10 21.7 °C 20.2 °C 1013.8 hPa Calm     91% 0 mm
04:15 21.6 °C 20.3 °C 1013.8 hPa Calm     92% 0 mm
04:20 21.4 °C 20.1 °C 1013.8 hPa Calm     92% 0 mm
04:21 21.4 °C 20.1 °C 1013.8 hPa Calm     92% 0 mm
04:24 21.3 °C 20 °C 1013.8 hPa Calm     92% 0 mm
04:25 21.3 °C 19.9 °C 1013.8 hPa Calm     92% 0 mm
04:26 21.3 °C 20 °C 1013.8 hPa Calm     92% 0 mm
04:29 21.3 °C 19.9 °C 1013.8 hPa Calm     92% 0 mm
04:33 21.3 °C 19.9 °C 1013.8 hPa Calm     92% 0 mm
04:35 21.3 °C 19.9 °C 1013.8 hPa Calm     92% 0 mm
04:37 21.3 °C 20 °C 1013.8 hPa Calm     92% 0 mm
04:38 21.3 °C 20 °C 1013.8 hPa Calm     92% 0 mm
04:39 21.3 °C 20 °C 1013.8 hPa Calm     92% 0 mm
04:40 21.3 °C 20 °C 1013.8 hPa Calm     92% 0 mm
04:43 21.3 °C 19.9 °C 1013.8 hPa Calm     92% 0 mm
04:48 21.2 °C 19.9 °C 1013.8 hPa Calm     92% 0 mm
04:53 21.2 °C 19.8 °C 1013.8 hPa Calm     92% 0 mm
04:58 21.3 °C 19.8 °C 1013.8 hPa Calm     91% 0 mm
05:03 21.4 °C 19.9 °C 1014.1 hPa Calm     91% 0 mm
05:08 21.4 °C 19.7 °C 1014.1 hPa Calm     90% 0 mm
05:13 21.5 °C 19.8 °C 1014.1 hPa Calm     90% 0 mm
05:18 21.5 °C 19.8 °C 1014.1 hPa Calm     90% 0 mm
05:19 21.5 °C 19.8 °C 1014.1 hPa Calm     90% 0 mm
05:24 21.5 °C 19.8 °C 1014.1 hPa Calm     90% 0 mm
05:25 21.5 °C 19.8 °C 1014.1 hPa Calm     90% 0 mm
05:29 21.4 °C 19.7 °C 1014.1 hPa Calm     90% 0 mm
05:34 21.2 °C 19.5 °C 1014.1 hPa Calm     90% 0 mm
05:39 21.1 °C 19.6 °C 1014.1 hPa Calm     91% 0 mm
05:40 21.1 °C 19.6 °C 1014.1 hPa Calm     91% 0 mm
05:44 21 °C 19.5 °C 1014.4 hPa Calm     91% 0 mm
05:49 20.9 °C 19.4 °C 1014.4 hPa Calm     91% 0 mm
05:50 20.9 °C 19.4 °C 1014.4 hPa Calm     91% 0 mm
05:54 20.8 °C 19.3 °C 1014.4 hPa Calm     91% 0 mm
06:00 20.8 °C 19.5 °C 1014.4 hPa Calm     92% 0 mm
06:05 21.1 °C 19.6 °C 1014.8 hPa Calm     91% 0 mm
06:10 21 °C 19.5 °C 1014.8 hPa Calm     91% 0 mm
06:15 20.9 °C 19.4 °C 1014.8 hPa Calm     91% 0 mm
06:20 20.7 °C 19.3 °C 1014.8 hPa Calm     92% 0 mm
06:21 20.7 °C 19.3 °C 1014.8 hPa Calm     92% 0 mm
06:26 20.5 °C 19.2 °C 1014.8 hPa Calm     92% 0 mm
06:29 20.4 °C 19.1 °C 1014.8 hPa Calm     92% 0 mm
06:31 20.4 °C 19.2 °C 1015.1 hPa Calm     93% 0 mm
06:32 20.3 °C 19.2 °C 1015.1 hPa Calm     93% 0 mm
06:34 20.3 °C 19.1 °C 1015.1 hPa Calm     93% 0 mm
06:39 20.2 °C 19.2 °C 1015.1 hPa Calm     94% 0 mm
06:40 20.2 °C 19.2 °C 1015.1 hPa Calm     94% 0 mm
06:44 20.2 °C 19.2 °C 1015.1 hPa Calm     94% 0 mm
06:45 20.2 °C 19.2 °C 1015.1 hPa Calm     94% 0 mm
06:49 20.2 °C 19.4 °C 1015.1 hPa Calm     95% 0 mm
06:54 20.2 °C 19.2 °C 1015.1 hPa Calm     94% 0 mm
07:00 20.2 °C 19.2 °C 1015.1 hPa Calm     94% 0 mm
07:05 20.3 °C 19.3 °C 1015.1 hPa Calm     94% 0 mm
07:06 20.3 °C 19.3 °C 1015.1 hPa Calm     94% 0 mm
07:11 20.6 °C 19.6 °C 1015.1 hPa Calm     94% 0 mm
07:16 20.9 °C 19.7 °C 1015.1 hPa Calm     93% 0 mm
07:21 21.1 °C 19.8 °C 1015.1 hPa Calm     92% 0 mm
07:26 21.4 °C 19.7 °C 1015.1 hPa Calm     90% 0 mm
07:27 21.5 °C 19.8 °C 1015.1 hPa Calm     90% 0 mm
07:32 21.7 °C 19.8 °C 1015.5 hPa Calm     89% 0 mm
07:33 21.8 °C 19.9 °C 1015.5 hPa Calm     89% 0 mm
07:38 21.9 °C 20.1 °C 1015.5 hPa SE 3.2 km/h 3.2 km/h 89% 0 mm
07:40 22.1 °C 20.2 °C 1015.5 hPa ESE 1.6 km/h 3.2 km/h 89% 0 mm
07:45 22.3 °C 20.2 °C 1015.5 hPa ESE 3.2 km/h 3.2 km/h 88% 0 mm
07:50 22.3 °C 20.2 °C 1015.5 hPa ESE 6.4 km/h 6.4 km/h 88% 0 mm
07:55 22.4 °C 20.3 °C 1015.5 hPa East 4.8 km/h 6.4 km/h 88% 0 mm
08:01 22.6 °C 20.4 °C 1015.5 hPa ESE 3.2 km/h 4.8 km/h 88% 0 mm
08:06 22.7 °C 20.4 °C 1015.5 hPa East 3.2 km/h 4.8 km/h 87% 0 mm
08:11 22.7 °C 20.4 °C 1015.5 hPa ESE 1.6 km/h 3.2 km/h 87% 0 mm
08:16 23.1 °C 20.6 °C 1015.5 hPa SE 3.2 km/h 3.2 km/h 86% 0 mm
08:21 23.3 °C 20.7 °C 1015.5 hPa SSE 3.2 km/h 3.2 km/h 85% 0 mm
08:22 23.4 °C 20.6 °C 1015.5 hPa SSE 3.2 km/h 3.2 km/h 84% 0 mm
08:26 23.6 °C 20.6 °C 1015.8 hPa South 1.6 km/h 4.8 km/h 83% 0 mm
08:30 23.9 °C 20.8 °C 1015.8 hPa Calm   3.2 km/h 83% 0 mm
08:31 23.9 °C 20.5 °C 1015.8 hPa SW 4.8 km/h 4.8 km/h 81% 0 mm
08:32 23.9 °C 20.5 °C 1015.8 hPa SW 6.4 km/h 6.4 km/h 81% 0 mm
08:36 24 °C 20.3 °C 1015.8 hPa SW 3.2 km/h 4.8 km/h 80% 0 mm
08:39 24.1 °C 20.4 °C 1015.8 hPa SW 4.8 km/h 6.4 km/h 80% 0 mm
08:41 24.1 °C 20.7 °C 1015.8 hPa SW 4.8 km/h 8 km/h 81% 0 mm
08:44 24.3 °C 20.4 °C 1015.8 hPa SW 3.2 km/h 4.8 km/h 79% 0 mm
08:46 24.3 °C 20 °C 1015.8 hPa SSW 1.6 km/h 4.8 km/h 77% 0 mm
08:49 24.4 °C 20.2 °C 1015.8 hPa SSW 1.6 km/h 4.8 km/h 77% 0 mm
08:54 24.6 °C 20.1 °C 1015.8 hPa SW 1.6 km/h 4.8 km/h 76% 0 mm
08:55 24.6 °C 20.1 °C 1015.8 hPa Calm   4.8 km/h 76% 0 mm
09:00 24.8 °C 20.3 °C 1015.8 hPa Calm   3.2 km/h 76% 0 mm
09:05 25 °C 20.5 °C 1015.8 hPa SSW 1.6 km/h 1.6 km/h 76% 0 mm
09:10 25.3 °C 20.6 °C 1015.8 hPa Calm   3.2 km/h 75% 0 mm
09:15 25.4 °C 20.7 °C 1015.8 hPa WSW 3.2 km/h 6.4 km/h 75% 0 mm
09:20 25.6 °C 21 °C 1015.8 hPa SSW 1.6 km/h 4.8 km/h 76% 0 mm
09:21 25.6 °C 21 °C 1015.8 hPa SW 6.4 km/h 6.4 km/h 76% 0 mm
09:22 25.6 °C 20.6 °C 1015.8 hPa SSE 1.6 km/h 8 km/h 74% 0 mm
09:26 25.8 °C 20.8 °C 1015.8 hPa SW 4.8 km/h 6.4 km/h 74% 0 mm
09:27 25.8 °C 20.3 °C 1015.8 hPa SSW 3.2 km/h 6.4 km/h 72% 0 mm
09:31 25.7 °C 20.9 °C 1015.8 hPa SSW 4.8 km/h 6.4 km/h 75% 0 mm
09:33 25.7 °C 20.7 °C 1015.8 hPa SW 4.8 km/h 6.4 km/h 74% 0 mm
09:36 25.7 °C 20.7 °C 1015.8 hPa SW 4.8 km/h 8 km/h 74% 0 mm
09:38 25.7 °C 20.7 °C 1015.8 hPa SW 6.4 km/h 8 km/h 74% 0 mm
09:41 25.8 °C 21.1 °C 1015.8 hPa SSW 6.4 km/h 6.4 km/h 75% 0 mm
09:43 25.8 °C 20.8 °C 1015.8 hPa SW 6.4 km/h 14.5 km/h 74% 0 mm
09:47 25.8 °C 20.8 °C 1015.8 hPa SSW 6.4 km/h 9.7 km/h 74% 0 mm
09:52 25.8 °C 20.8 °C 1015.8 hPa WSW 6.4 km/h 6.4 km/h 74% 0 mm
09:57 26.1 °C 21.1 °C 1015.8 hPa SW 6.4 km/h 8 km/h 74% 0 mm
10:02 26.3 °C 21.1 °C 1015.8 hPa SW 3.2 km/h 8 km/h 73% 0 mm
10:07 26.4 °C 21.2 °C 1015.8 hPa SW 4.8 km/h 8 km/h 73% 0 mm
10:12 26.5 °C 21.3 °C 1015.8 hPa SW 6.4 km/h 9.7 km/h 73% 0 mm
10:17 26.6 °C 21.4 °C 1015.8 hPa SW 4.8 km/h 8 km/h 73% 0 mm
10:24 26.6 °C 21.3 °C 1015.8 hPa SW 1.6 km/h 1.6 km/h 73% 0 mm
10:27 26.7 °C 21.7 °C 1015.8 hPa SSW 4.8 km/h 8 km/h 74% 0 mm
10:29 26.9 °C 21.7 °C 1015.8 hPa SSW 4.8 km/h 8 km/h 73% 0 mm
10:34 27.2 °C 21.9 °C 1015.8 hPa WSW 3.2 km/h 9.7 km/h 73% 0 mm
10:35 27.2 °C 21.7 °C 1015.5 hPa Calm   9.7 km/h 72% 0 mm
10:36 27.2 °C 21.7 °C 1015.8 hPa SE 4.8 km/h 4.8 km/h 72% 0 mm
10:38 27.3 °C 21.3 °C 1015.8 hPa SW 4.8 km/h 9.7 km/h 70% 0 mm
10:39 27.2 °C 21.5 °C 1015.8 hPa West 4.8 km/h 9.7 km/h 71% 0 mm
10:40 27.2 °C 21.5 °C 1015.8 hPa West 3.2 km/h 9.7 km/h 71% 0 mm
10:44 27.6 °C 21.8 °C 1015.8 hPa SSW 4.8 km/h 9.7 km/h 71% 0 mm
10:49 27.7 °C 21.2 °C 1015.8 hPa West 3.2 km/h 8 km/h 68% 0 mm
10:55 27.7 °C 21 °C 1015.5 hPa SSW 1.6 km/h 9.7 km/h 67% 0 mm
11:00 27.6 °C 21.2 °C 1015.5 hPa SW 1.6 km/h 9.7 km/h 68% 0 mm
11:05 27.9 °C 21.4 °C 1015.5 hPa WSW 3.2 km/h 8 km/h 68% 0 mm
11:06 27.9 °C 20.9 °C 1015.5 hPa WSW 4.8 km/h 9.7 km/h 66% 0 mm
11:11 28.1 °C 21.9 °C 1015.5 hPa SW 6.4 km/h 8 km/h 69% 0 mm
11:16 28.3 °C 21.3 °C 1015.5 hPa SW 4.8 km/h 6.4 km/h 66% 0 mm
11:17 28.3 °C 21.4 °C 1015.5 hPa West 6.4 km/h 8 km/h 66% 0 mm
11:22 28.5 °C 21.3 °C 1015.8 hPa SSW 8 km/h 8 km/h 65% 0 mm
11:27 28.8 °C 21.6 °C 1015.8 hPa SSW 6.4 km/h 6.4 km/h 65% 0 mm
11:32 29.2 °C 20.6 °C 1015.5 hPa SSE 6.4 km/h 9.7 km/h 60% 0 mm
11:33 29.2 °C 20.7 °C 1015.5 hPa SW 8 km/h 11.3 km/h 60% 0 mm
11:37 29.3 °C 20.8 °C 1015.5 hPa SSE 4.8 km/h 9.7 km/h 60% 0 mm
11:39 29.3 °C 20.8 °C 1015.5 hPa SW 3.2 km/h 8 km/h 60% 0 mm
11:43 29.2 °C 20.6 °C 1015.5 hPa SSE 4.8 km/h 8 km/h 60% 0 mm
11:44 29.2 °C 21.2 °C 1015.8 hPa SSW 6.4 km/h 8 km/h 62% 0 mm
11:49 29.4 °C 21.2 °C 1015.8 hPa SSW 6.4 km/h 8 km/h 61% 0 mm
11:54 29.2 °C 19.8 °C 1015.5 hPa NW 3.2 km/h 9.7 km/h 57% 0 mm
11:59 29.4 °C 20.3 °C 1015.5 hPa West 4.8 km/h 8 km/h 58% 0 mm
12:04 29.6 °C 21.2 °C 1015.8 hPa South 3.2 km/h 12.9 km/h 61% 0 mm
12:09 29.7 °C 19.9 °C 1015.5 hPa SE 6.4 km/h 9.7 km/h 56% 0 mm
12:10 29.7 °C 20.8 °C 1015.5 hPa SE 6.4 km/h 9.7 km/h 59% 0 mm
12:15 29.8 °C 20.4 °C 1015.5 hPa South 11.3 km/h 11.3 km/h 57% 0 mm
12:20 30.1 °C 20.7 °C 1015.5 hPa SW 4.8 km/h 11.3 km/h 57% 0 mm
12:21 30.1 °C 20.1 °C 1015.5 hPa South 4.8 km/h 11.3 km/h 55% 0 mm
12:26 29.9 °C 20.2 °C 1015.5 hPa South 1.6 km/h 9.7 km/h 56% 0 mm
12:31 29.9 °C 20.7 °C 1015.5 hPa Calm   8 km/h 58% 0 mm
12:32 30 °C 21.1 °C 1015.5 hPa WSW 9.7 km/h 9.7 km/h 59% 0 mm
12:36 30.2 °C 19.6 °C 1015.5 hPa SE 1.6 km/h 12.9 km/h 53% 0 mm
12:37 30.2 °C 20.5 °C 1015.5 hPa WSW 8 km/h 9.7 km/h 56% 0 mm
12:38 30.3 °C 19.9 °C 1015.5 hPa SSW 3.2 km/h 8 km/h 54% 0 mm
12:42 30.2 °C 20.5 °C 1015.5 hPa South 6.4 km/h 9.7 km/h 56% 0 mm
12:43 30.3 °C 20.8 °C 1015.5 hPa SW 6.4 km/h 9.7 km/h 57% 0 mm
12:45 30.3 °C 20.6 °C 1015.5 hPa SW 11.3 km/h 11.3 km/h 56% 0 mm
12:47 30.2 °C 20.5 °C 1015.5 hPa SSW 4.8 km/h 11.3 km/h 56% 0 mm
12:52 30.3 °C 20.3 °C 1015.5 hPa SE 6.4 km/h 9.7 km/h 55% 0 mm
12:57 30.3 °C 19.6 °C 1015.5 hPa SSE 3.2 km/h 8 km/h 53% 0 mm
13:02 30.4 °C 20.1 °C 1015.5 hPa South 1.6 km/h 9.7 km/h 54% 0 mm
13:07 30.4 °C 20.7 °C 1015.5 hPa SW 6.4 km/h 9.7 km/h 56% 0 mm
13:12 30.7 °C 20 °C 1015.5 hPa SW 9.7 km/h 12.9 km/h 53% 0 mm
13:17 30.7 °C 20.9 °C 1015.5 hPa SW 8 km/h 12.9 km/h 56% 0 mm
13:22 30.5 °C 19.2 °C 1015.5 hPa WNW 8 km/h 8 km/h 51% 0 mm
13:23 30.5 °C 19.2 °C 1015.5 hPa WNW 6.4 km/h 8 km/h 51% 0 mm
13:28 30.9 °C 20.5 °C 1015.5 hPa SW 14.5 km/h 14.5 km/h 54% 0 mm
13:29 30.9 °C 19.9 °C 1015.5 hPa SW 14.5 km/h 14.5 km/h 52% 0 mm
13:34 30.9 °C 19.3 °C 1015.5 hPa WSW 6.4 km/h 9.7 km/h 50% 0 mm
13:35 31 °C 19.7 °C 1015.5 hPa SW 6.4 km/h 9.7 km/h 51% 0 mm
13:39 31.1 °C 19.8 °C 1015.1 hPa West 8 km/h 9.7 km/h 51% 0 mm
13:41 31.1 °C 20.1 °C 1015.1 hPa WNW 3.2 km/h 9.7 km/h 52% 0 mm
13:46 30.9 °C 20.6 °C 1015.1 hPa WSW 8 km/h 9.7 km/h 54% 0 mm
13:51 30.7 °C 19.4 °C 1015.1 hPa WNW 9.7 km/h 9.7 km/h 51% 0 mm
13:56 30.8 °C 20.4 °C 1015.1 hPa SW 11.3 km/h 14.5 km/h 54% 0 mm
14:01 30.9 °C 20.2 °C 1014.8 hPa WNW 11.3 km/h 16.1 km/h 53% 0 mm
14:06 30.9 °C 19.6 °C 1014.8 hPa WSW 6.4 km/h 11.3 km/h 51% 0 mm
14:11 31.3 °C 19.9 °C 1014.8 hPa SSE 3.2 km/h 4.8 km/h 51% 0 mm
14:16 31.7 °C 19.7 °C 1014.8 hPa WSW 8 km/h 11.3 km/h 49% 0 mm
14:21 31.5 °C 18.8 °C 1014.8 hPa ESE 4.8 km/h 11.3 km/h 47% 0 mm
14:22 31.4 °C 19.1 °C 1014.4 hPa SSE 1.6 km/h 8 km/h 48% 0 mm
14:24 31.4 °C 19.4 °C 1014.4 hPa SW 8 km/h 11.3 km/h 49% 0 mm
14:27 31.3 °C 20.3 °C 1014.4 hPa WNW 8 km/h 8 km/h 52% 0 mm
14:29 31.3 °C 19.7 °C 1014.4 hPa WSW 3.2 km/h 8 km/h 50% 0 mm
14:34 31.6 °C 18.6 °C 1014.4 hPa South 3.2 km/h 11.3 km/h 46% 0 mm
14:37 31.7 °C 19 °C 1014.1 hPa West 4.8 km/h 14.5 km/h 47% 0 mm
14:39 31.6 °C 19.6 °C 1014.1 hPa West 8 km/h 11.3 km/h 49% 0 mm
14:44 31.4 °C 19.1 °C 1014.1 hPa WSW 3.2 km/h 8 km/h 48% 0 mm
14:49 31.5 °C 19.8 °C 1014.1 hPa SW 3.2 km/h 6.4 km/h 50% 0 mm
14:50 31.5 °C 19.8 °C 1014.1 hPa SSW 4.8 km/h 4.8 km/h 50% 0 mm
14:55 31.5 °C 18.8 °C 1013.8 hPa SW 14.5 km/h 14.5 km/h 47% 0 mm
15:00 31.8 °C 19.8 °C 1013.8 hPa SW 6.4 km/h 11.3 km/h 49% 0 mm
15:05 31.7 °C 20.1 °C 1013.8 hPa SW 8 km/h 9.7 km/h 50% 0 mm
15:10 31.7 °C 19.4 °C 1013.8 hPa WSW 8 km/h 11.3 km/h 48% 0 mm
15:15 31.7 °C 20.3 °C 1013.8 hPa West 4.8 km/h 9.7 km/h 51% 0 mm
15:20 31.8 °C 18.7 °C 1013.4 hPa WSW 6.4 km/h 9.7 km/h 46% 0 mm
15:23 31.8 °C 18.4 °C 1013.4 hPa SW 14.5 km/h 14.5 km/h 45% 0 mm
15:25 31.8 °C 18.8 °C 1013.4 hPa SW 9.7 km/h 14.5 km/h 46% 0 mm
15:26 31.8 °C 18.8 °C 1013.4 hPa WSW 11.3 km/h 14.5 km/h 46% 0 mm
15:27 31.8 °C 18.8 °C 1013.4 hPa West 11.3 km/h 12.9 km/h 46% 0 mm
15:31 31.8 °C 18.8 °C 1013.4 hPa SW 8 km/h 14.5 km/h 46% 0 mm
15:32 31.9 °C 19.9 °C 1013.4 hPa West 8 km/h 12.9 km/h 49% 0 mm
15:33 31.9 °C 18.6 °C 1013.4 hPa WSW 6.4 km/h 12.9 km/h 45% 0 mm
15:36 31.9 °C 18.6 °C 1013.4 hPa WSW 6.4 km/h 8 km/h 45% 0 mm
15:38 32 °C 18.9 °C 1013.4 hPa WSW 11.3 km/h 16.1 km/h 46% 0 mm
15:43 31.8 °C 19.4 °C 1013.4 hPa WSW 6.4 km/h 12.9 km/h 48% 0 mm
15:44 31.8 °C 19.1 °C 1013.4 hPa WSW 8 km/h 11.3 km/h 47% 0 mm
15:48 31.9 °C 19.5 °C 1013.4 hPa West 9.7 km/h 14.5 km/h 48% 0 mm
15:53 31.9 °C 19.6 °C 1013.4 hPa WNW 6.4 km/h 16.1 km/h 48% 0 mm
15:58 31.9 °C 18.5 °C 1013.1 hPa SW 3.2 km/h 12.9 km/h 45% 0 mm
16:03 32.3 °C 19.2 °C 1013.1 hPa South 6.4 km/h 12.9 km/h 46% 0 mm
16:08 32.3 °C 18.9 °C 1013.1 hPa SW 4.8 km/h 11.3 km/h 45% 0 mm
16:13 32.2 °C 19.2 °C 1013.1 hPa WSW 9.7 km/h 12.9 km/h 46% 0 mm
16:18 32.3 °C 19.9 °C 1013.1 hPa SW 12.9 km/h 12.9 km/h 48% 0 mm
16:20 32.3 °C 19.6 °C 1013.1 hPa SSE 6.4 km/h 12.9 km/h 47% 0 mm
16:23 32.2 °C 19.2 °C 1013.1 hPa SW 8 km/h 12.9 km/h 46% 0 mm
16:24 32.2 °C 19.8 °C 1013.1 hPa SW 4.8 km/h 12.9 km/h 48% 0 mm
16:29 32.4 °C 19 °C 1013.1 hPa WSW 9.7 km/h 16.1 km/h 45% 0 mm
16:34 32.3 °C 20.6 °C 1013.1 hPa SSE 6.4 km/h 8 km/h 50% 0 mm
16:36 32.4 °C 19.6 °C 1012.8 hPa South 8 km/h 12.9 km/h 47% 0 mm
16:41 32.4 °C 19.7 °C 1012.8 hPa SSE 4.8 km/h 11.3 km/h 47% 0 mm
16:42 32.5 °C 19.7 °C 1012.8 hPa South 8 km/h 8 km/h 47% 0 mm
16:47 32.6 °C 19.8 °C 1012.8 hPa South 9.7 km/h 12.9 km/h 47% 0 mm
16:52 32.3 °C 19.9 °C 1012.8 hPa West 6.4 km/h 11.3 km/h 48% 0 mm
16:57 32.4 °C 20 °C 1012.8 hPa SSW 6.4 km/h 9.7 km/h 48% 0 mm
17:02 32.3 °C 19.9 °C 1012.4 hPa SSW 9.7 km/h 11.3 km/h 48% 0 mm
17:07 32.3 °C 19.6 °C 1012.4 hPa SSW 9.7 km/h 12.9 km/h 47% 0 mm
17:08 32.3 °C 19.6 °C 1012.4 hPa SSW 11.3 km/h 12.9 km/h 47% 0 mm
17:13 32.2 °C 19.5 °C 1012.4 hPa WSW 6.4 km/h 12.9 km/h 47% 0 mm
17:18 32.3 °C 19.9 °C 1012.8 hPa SW 1.6 km/h 4.8 km/h 48% 0 mm
17:23 32.6 °C 19.4 °C 1012.4 hPa West 9.7 km/h 12.9 km/h 46% 0 mm
17:24 32.5 °C 18.7 °C 1012.4 hPa SW 6.4 km/h 14.5 km/h 44% 0 mm
17:29 32.4 °C 19.6 °C 1012.4 hPa SW 4.8 km/h 14.5 km/h 47% 0 mm
17:30 32.4 °C 19.3 °C 1012.4 hPa South 3.2 km/h 14.5 km/h 46% 0 mm
17:34 32.5 °C 19.1 °C 1012.4 hPa SW 16.1 km/h 16.1 km/h 45% 0 mm
17:35 32.5 °C 19.1 °C 1012.4 hPa SW 12.9 km/h 16.1 km/h 45% 0 mm
17:36 32.4 °C 18.6 °C 1012.4 hPa SSW 4.8 km/h 16.1 km/h 44% 0 mm
17:40 32.3 °C 18.8 °C 1012.4 hPa South 6.4 km/h 11.3 km/h 45% 0 mm
17:42 32.3 °C 19.2 °C 1012.4 hPa SSW 4.8 km/h 9.7 km/h 46% 0 mm
17:46 32.3 °C 19.9 °C 1012.4 hPa SSW 6.4 km/h 8 km/h 48% 0 mm
17:48 32.3 °C 19.2 °C 1012.4 hPa WSW 11.3 km/h 11.3 km/h 46% 0 mm
17:51 32.1 °C 20.1 °C 1012.4 hPa SW 4.8 km/h 9.7 km/h 49% 0 mm
17:56 32.2 °C 19.8 °C 1012.4 hPa SW 6.4 km/h 9.7 km/h 48% 0 mm
18:02 32.2 °C 19.1 °C 1012.4 hPa SW 9.7 km/h 9.7 km/h 46% 0 mm
18:07 32.1 °C 19.4 °C 1012.4 hPa SSW 6.4 km/h 8 km/h 47% 0 mm
18:12 32.3 °C 18.9 °C 1012.4 hPa SSE 4.8 km/h 6.4 km/h 45% 0 mm
18:17 32.4 °C 19.7 °C 1012.4 hPa SSW 6.4 km/h 8 km/h 47% 0 mm
18:22 32.4 °C 18.6 °C 1012.4 hPa South 4.8 km/h 8 km/h 44% 0 mm
18:27 32.4 °C 19.7 °C 1012.4 hPa South 4.8 km/h 8 km/h 47% 0 mm
18:28 32.4 °C 19.7 °C 1012.4 hPa SSE 6.4 km/h 8 km/h 47% 0 mm
18:30 32.4 °C 19.3 °C 1012.4 hPa WSW 4.8 km/h 9.7 km/h 46% 0 mm
18:35 32.4 °C 20.1 °C 1012.4 hPa SSW 6.4 km/h 8 km/h 48% 0 mm
18:40 32.4 °C 19.3 °C 1012.4 hPa SW 3.2 km/h 9.7 km/h 46% 0 mm
18:45 32.3 °C 18.6 °C 1012.4 hPa SW 3.2 km/h 4.8 km/h 44% 0 mm
18:46 32.3 °C 18.6 °C 1012.4 hPa SW 3.2 km/h 4.8 km/h 44% 0 mm
18:51 32.4 °C 19.3 °C 1012.4 hPa SSE 4.8 km/h 8 km/h 46% 0 mm
18:56 32.3 °C 19.2 °C 1012.4 hPa SSW 6.4 km/h 6.4 km/h 46% 0 mm
19:01 32.3 °C 18.8 °C 1012.4 hPa SW 1.6 km/h 4.8 km/h 45% 0 mm
19:06 32.4 °C 18.9 °C 1012.1 hPa SSW 1.6 km/h 6.4 km/h 45% 0 mm
19:11 32.4 °C 18.6 °C 1012.4 hPa SW 3.2 km/h 4.8 km/h 44% 0 mm
19:12 32.4 °C 18.6 °C 1012.4 hPa SSW 1.6 km/h 4.8 km/h 44% 0 mm
19:17 32.4 °C 19 °C 1012.4 hPa SW 1.6 km/h 3.2 km/h 45% 0 mm
19:22 32.4 °C 19 °C 1012.1 hPa South 3.2 km/h 3.2 km/h 45% 0 mm
19:24 32.5 °C 19.1 °C 1012.1 hPa Calm   4.8 km/h 45% 0 mm
19:28 32.4 °C 19.3 °C 1012.1 hPa SW 3.2 km/h 4.8 km/h 46% 0 mm
19:30 32.2 °C 19.2 °C 1012.1 hPa South 3.2 km/h 4.8 km/h 46% 0 mm
19:33 32.2 °C 19.1 °C 1012.1 hPa South 4.8 km/h 4.8 km/h 46% 0 mm
19:38 32 °C 19.3 °C 1012.1 hPa SW 4.8 km/h 6.4 km/h 47% 0 mm
19:43 31.7 °C 20.1 °C 1012.1 hPa SW 4.8 km/h 4.8 km/h 50% 0 mm
19:44 31.7 °C 20.3 °C 1012.1 hPa SW 4.8 km/h 4.8 km/h 51% 0 mm
19:48 31.6 °C 19.6 °C 1012.1 hPa SSW 4.8 km/h 6.4 km/h 49% 0 mm
19:53 31.4 °C 19.4 °C 1012.1 hPa SW 1.6 km/h 4.8 km/h 49% 0 mm
19:58 31.4 °C 19.7 °C 1012.1 hPa SW 3.2 km/h 3.2 km/h 50% 0 mm
20:03 31.3 °C 19.3 °C 1012.1 hPa SW 1.6 km/h 3.2 km/h 49% 0 mm
20:05 31.3 °C 19.6 °C 1012.1 hPa SW 1.6 km/h 3.2 km/h 50% 0 mm
20:10 31 °C 19.7 °C 1012.1 hPa SW 3.2 km/h 6.4 km/h 51% 0 mm
20:15 30.8 °C 19.6 °C 1012.1 hPa SW 3.2 km/h 3.2 km/h 51% 0 mm
20:20 30.7 °C 19.4 °C 1012.1 hPa SW 1.6 km/h 1.6 km/h 51% 0 mm
20:21 30.6 °C 19.3 °C 1012.1 hPa SW 1.6 km/h 1.6 km/h 51% 0 mm
20:26 30.4 °C 19.8 °C 1012.1 hPa Calm   1.6 km/h 53% 0 mm
20:31 30.3 °C 19.7 °C 1012.1 hPa Calm   1.6 km/h 53% 0 mm
20:33 30.3 °C 19.6 °C 1012.1 hPa SW 1.6 km/h 1.6 km/h 53% 0 mm
20:37 30 °C 20 °C 1012.4 hPa Calm   1.6 km/h 55% 0 mm
20:42 29.4 °C 20.9 °C 1012.4 hPa Calm   1.6 km/h 60% 0 mm
20:47 28.7 °C 20.7 °C 1012.4 hPa Calm     62% 0 mm
20:52 28.2 °C 21 °C 1012.4 hPa Calm   1.6 km/h 65% 0 mm
20:57 27.9 °C 21.5 °C 1012.1 hPa Calm     68% 0 mm
21:02 27.3 °C 20.9 °C 1012.1 hPa Calm   1.6 km/h 68% 0 mm
21:07 27.1 °C 20.4 °C 1012.4 hPa Calm     67% 0 mm
21:12 26.9 °C 20.3 °C 1012.4 hPa Calm     67% 0 mm
21:17 26.6 °C 20.2 °C 1012.4 hPa Calm     68% 0 mm
21:18 26.6 °C 20.2 °C 1012.4 hPa Calm     68% 0 mm
21:23 26.4 °C 20.3 °C 1012.4 hPa SW 1.6 km/h 1.6 km/h 69% 0 mm
21:28 26.2 °C 20.6 °C 1012.4 hPa SW 1.6 km/h 1.6 km/h 71% 0 mm
21:29 26.2 °C 20.5 °C 1012.4 hPa SW 1.6 km/h 1.6 km/h 71% 0 mm
21:30 26.1 °C 20.4 °C 1012.4 hPa SSE 1.6 km/h 1.6 km/h 71% 0 mm
21:33 25.9 °C 20.5 °C 1012.4 hPa SSE 1.6 km/h 1.6 km/h 72% 0 mm
21:34 25.9 °C 20.4 °C 1012.4 hPa SSE 1.6 km/h 1.6 km/h 72% 0 mm
21:35 25.8 °C 20.4 °C 1012.4 hPa SSE 1.6 km/h 1.6 km/h 72% 0 mm
21:37 25.7 °C 20.3 °C 1012.4 hPa Calm   1.6 km/h 72% 0 mm
21:39 25.7 °C 20.3 °C 1012.4 hPa Calm   1.6 km/h 72% 0 mm
21:42 25.7 °C 20.3 °C 1012.8 hPa Calm     72% 0 mm
21:43 25.7 °C 20.3 °C 1012.8 hPa Calm     72% 0 mm
21:47 25.7 °C 20.2 °C 1012.8 hPa Calm   1.6 km/h 72% 0 mm
21:53 25.8 °C 19.9 °C 1012.8 hPa Calm     70% 0 mm
21:58 25.9 °C 19.8 °C 1013.1 hPa Calm     69% 0 mm
22:03 26.1 °C 19.4 °C 1013.1 hPa Calm   1.6 km/h 67% 0 mm
22:08 26.2 °C 19.6 °C 1013.1 hPa Calm     67% 0 mm
22:13 25.8 °C 19.5 °C 1013.4 hPa Calm     68% 0 mm
22:18 25.5 °C 18.9 °C 1013.4 hPa Calm     67% 0 mm
22:23 25.6 °C 19.1 °C 1013.4 hPa Calm     67% 0 mm
22:24 25.6 °C 19.1 °C 1013.4 hPa Calm     67% 0 mm
22:28 25.4 °C 18.9 °C 1013.4 hPa Calm     67% 0 mm
22:30 25.3 °C 18.9 °C 1013.8 hPa Calm     68% 0 mm
22:33 25.1 °C 19 °C 1013.8 hPa Calm     69% 0 mm
22:34 25.1 °C 19 °C 1013.8 hPa Calm     69% 0 mm
22:35 25 °C 18.9 °C 1013.8 hPa Calm     69% 0 mm
22:39 24.8 °C 18.9 °C 1013.8 hPa Calm     70% 0 mm
22:44 24.5 °C 18.9 °C 1013.8 hPa Calm     71% 0 mm
22:49 24.2 °C 19.4 °C 1013.8 hPa Calm   1.6 km/h 75% 0 mm
22:54 23.9 °C 19.2 °C 1013.8 hPa Calm     75% 0 mm
22:55 23.9 °C 19.2 °C 1013.8 hPa Calm     75% 0 mm
23:00 23.8 °C 19.7 °C 1013.8 hPa Calm     78% 0 mm
23:04 23.6 °C 19.3 °C 1013.8 hPa Calm     77% 0 mm
23:10 23.4 °C 19.2 °C 1013.8 hPa Calm     77% 0 mm
23:15 23.4 °C 18.9 °C 1013.8 hPa Calm     76% 0 mm
23:20 23.3 °C 18.7 °C 1013.8 hPa Calm     75% 0 mm
23:25 23.4 °C 18.6 °C 1013.8 hPa Calm     74% 0 mm
23:26 23.4 °C 18.6 °C 1013.8 hPa Calm     74% 0 mm
23:27 23.4 °C 18.3 °C 1013.8 hPa Calm     73% 0 mm
23:30 23.6 °C 18.9 °C 1013.8 hPa Calm     75% 0 mm
23:33 23.5 °C 18.8 °C 1013.8 hPa Calm     75% 0 mm
23:36 23.3 °C 19 °C 1013.8 hPa Calm     77% 0 mm
23:38 23.2 °C 19.1 °C 1013.8 hPa Calm     78% 0 mm
23:43 22.8 °C 18.6 °C 1013.4 hPa Calm     77% 0 mm
23:44 22.8 °C 18.4 °C 1013.8 hPa Calm     76% 0 mm
23:48 22.7 °C 18.4 °C 1013.4 hPa Calm     77% 0 mm
23:53 22.7 °C 18.3 °C 1013.4 hPa Calm     76% 0 mm
23:54 22.7 °C 18.3 °C 1013.4 hPa Calm     76% 0 mm
23:59 22.5 °C 18.5 °C 1013.4 hPa Calm     78% 0 mm
Compliments of Weather Underground